Observations for Trim Market St
| Time | AQI | Temp °C | Hum % | Pres Pa | CO μg/m³ | H₂S μg/m³ | NO μg/m³ | NO₂ μg/m³ | O₃ μg/m³ | SO₂ μg/m³ | PM1 μg/m³ | PM2.5 μg/m³ | PM10 μg/m³ |
|---|---|---|---|---|---|---|---|---|---|---|---|---|---|
| Saturday 22 August 2026 | |||||||||||||
| 09:51 | 2 | 22.7 | 48 | 64,485 | 1.47 | 0 | 1.92 | 11.78 | 48.9 | 0 | 0.71 | 2.52 | 2.77 |
| 09:50 | 2 | 22.6 | 49 | 64,337 | 0.35 | 0 | 1.94 | 11.05 | 44.04 | 0 | 0.71 | 3.53 | 4.52 |
| 09:49 | 2 | 22.6 | 49 | 64,172 | 0.38 | 0 | 1.99 | 11.38 | 52.97 | 0 | 0.71 | 2.5 | 2.75 |
| 09:48 | 2 | 22.5 | 49 | 64,013 | 0.43 | 0 | 2.2 | 19.28 | 50.27 | 0 | 0.71 | 4.03 | 4.53 |
| 09:47 | 2 | 22.4 | 50 | 63,845 | 0.36 | 0 | 2.32 | 14.65 | 48.1 | 0 | 1.43 | 4.02 | 4.53 |
| 09:46 | 2 | 22.3 | 50 | 63,717 | 0.53 | 0 | 2.04 | 11.55 | 39.24 | 0 | 1.43 | 3.49 | 3.79 |
| 09:45 | 2 | 22.2 | 50 | 63,416 | 0.7 | 0 | 2.06 | 42.3 | 45.92 | 0 | 0 | 2.97 | 4.54 |
| 09:44 | 2 | 22.1 | 50 | 63,227 | 0.34 | 0 | 2 | 11.8 | 47.31 | 0 | 0.71 | 2.96 | 3.06 |
| 09:43 | 2 | 21.9 | 50 | 63,070 | 0.37 | 0 | 1.87 | 12.18 | 51.08 | 0 | 1.43 | 3.46 | 3.81 |
| 09:41 | 2 | 21.7 | 51 | 63,007 | 0.41 | 0 | 1.85 | 10.11 | 48.97 | 0 | 1.43 | 3.45 | 3.82 |
| 09:39 | 2 | 21.6 | 52 | 62,429 | 2.7 | 0 | 1.8 | 8.84 | 50.2 | 0 | 2.14 | 4.44 | 6.05 |
| 09:35 | 2 | 21.3 | 52 | 61,543 | 0.39 | 0 | 1.92 | 8.46 | 52.11 | 0 | 0 | 2.86 | 3.14 |
| 09:33 | 2 | 21.1 | 53 | 60,639 | 0.92 | 0 | 1.89 | 8.44 | 45.98 | 0 | 0 | 2.85 | 3.88 |
| 09:26 | 2 | 20.5 | 54 | 56,493 | 0.4 | 0 | 1.99 | 7.85 | 47.97 | 0 | 1.43 | 3.28 | 3.93 |
| 09:25 | 2 | 20.4 | 55 | 56,419 | 0.49 | 0 | 2.48 | 8.66 | 43.39 | 0 | 0.71 | 3.26 | 4.66 |
| 09:24 | 2 | 20.3 | 55 | 56,081 | 0.67 | 0 | 2.52 | 6.72 | 48.07 | 0 | 0 | 2.24 | 2.52 |
| 09:23 | 2 | 20.2 | 55 | 55,852 | 0.99 | 0 | 2.64 | 11.54 | 42.84 | 0 | 0.71 | 2.73 | 3.24 |
| 09:21 | 2 | 20.1 | 56 | 56,005 | 0.47 | 0 | 2.69 | 10.6 | 35.26 | 0 | 0.71 | 3.72 | 4.69 |
| 09:20 | 2 | 20 | 56 | 56,090 | 0.55 | 0 | 2.58 | 10.78 | 35.58 | 0 | 0.71 | 3.2 | 3.98 |
| 09:19 | 2 | 19.9 | 56 | 56,224 | 0.7 | 0 | 2.55 | 13.16 | 35.68 | 0 | 0.71 | 3.19 | 6.11 |